contact:dominique.lefevre@mio.osupytheas.fr, maurice.libes@osupytheas.fr, didier.mallarino@osupytheas.fr
Project:EMSO http://www.emso-fr.org/EMSO-France
Depth: 2436.0 m
Title:EMSO Ligure Ouest : Data MII capteur AQUADOPP
Date,Latitude,Longitude,X_East,Y_North,Z_Up,Amplitude_X,Amplitude_Y,Amplitude_Z,Batterie,SoundSpeed,Heading,Pitch,Roll,Pressure,TIS,Speed,Direction
, degrees North, degrees East, m.s-1, m.s-1,m.s-1, 1, 1, 1, Volt, m.s-1, degree, degree, degree, dbar, degree_C, m.s-1, degree
2023-08-09T00:04:03,42.805,6.029,-0.019,0.018,-0.018,105.0,104.0,102.0,13.3,1505.2,322.9,-0.8,1.8,2471.542,13.29,0.026,313.5
2023-08-09T00:07:03,42.805,6.029,0.008,0.017,-0.01,104.0,104.0,102.0,13.3,1505.2,330.8,-0.8,1.8,2471.548,13.29,0.018,25.2
2023-08-09T00:10:03,42.805,6.029,-0.018,0.021,-0.012,104.0,105.0,102.0,13.3,1505.2,330.9,-0.8,1.8,2471.513,13.29,0.027,319.4
2023-08-09T00:13:03,42.805,6.029,-0.014,0.025,0.01,105.0,105.0,102.0,13.4,1505.2,335.3,-0.7,1.8,2471.537,13.29,0.028,330.7
2023-08-09T00:16:03,42.805,6.029,-0.013,0.013,-0.001,104.0,104.0,101.0,13.4,1505.2,339.5,-0.8,1.8,2471.515,13.29,0.018,315.0
2023-08-09T00:19:03,42.805,6.029,0.0,0.001,-0.029,104.0,103.0,103.0,13.4,1505.2,332.9,-0.8,1.8,2471.544,13.29,0.001,0.0
2023-08-09T00:22:03,42.805,6.029,0.003,0.021,-0.026,103.0,102.0,103.0,13.4,1505.2,350.3,-0.7,1.8,2471.508,13.29,0.021,8.1
2023-08-09T00:25:03,42.805,6.029,0.002,0.017,-0.039,103.0,105.0,102.0,13.3,1505.2,351.5,-0.8,1.8,2471.527,13.29,0.017,6.7
2023-08-09T00:28:03,42.805,6.029,0.011,0.001,-0.018,104.0,104.0,102.0,13.4,1505.2,340.9,-0.7,1.8,2471.529,13.3,0.011,84.8
2023-08-09T00:31:03,42.805,6.029,0.008,0.002,-0.018,105.0,104.0,102.0,13.4,1505.2,339.3,-0.8,1.8,2471.502,13.3,0.008,76.0
2023-08-09T00:34:03,42.805,6.029,-0.012,0.015,0.016,103.0,105.0,102.0,13.3,1505.2,341.5,-0.8,1.8,2471.522,13.3,0.019,321.3
2023-08-09T00:37:03,42.805,6.029,-0.019,0.012,-0.004,104.0,103.0,102.0,13.3,1505.2,332.4,-0.8,1.8,2471.502,13.3,0.022,302.3
2023-08-09T00:40:03,42.805,6.029,-0.004,0.019,-0.027,104.0,103.0,103.0,13.3,1505.2,334.8,-0.8,1.8,2471.501,13.3,0.019,348.1
2023-08-09T00:43:03,42.805,6.029,-0.002,0.0,-0.02,103.0,104.0,102.0,13.4,1505.2,333.8,-0.8,1.8,2471.509,13.3,0.002,270.0
2023-08-09T00:46:03,42.805,6.029,0.001,0.019,-0.01,104.0,105.0,103.0,13.4,1505.2,329.0,-0.7,1.8,2471.519,13.3,0.019,3.0
2023-08-09T00:49:03,42.805,6.029,-0.006,-0.01,-0.047,103.0,105.0,102.0,13.3,1505.2,343.7,-0.7,1.8,2471.539,13.3,0.011,211.0
2023-08-09T00:52:03,42.805,6.029,0.0,-0.003,-0.019,104.0,103.0,103.0,13.4,1505.2,335.7,-0.7,1.8,2471.498,13.3,0.003,180.0
2023-08-09T00:55:03,42.805,6.029,0.001,0.007,-0.019,104.0,104.0,101.0,13.4,1505.2,344.7,-0.8,1.8,2471.505,13.3,0.007,8.1
2023-08-09T00:58:03,42.805,6.029,0.006,0.001,-0.019,104.0,105.0,102.0,13.4,1505.2,332.1,-0.8,1.8,2471.497,13.3,0.006,80.5
2023-08-09T01:04:03,42.805,6.029,0.005,0.016,-0.049,105.0,106.0,103.0,13.4,1505.2,349.1,-0.8,1.8,2471.538,13.29,0.016,17.4
2023-08-09T01:07:03,42.805,6.029,0.0,0.021,-0.013,105.0,103.0,103.0,13.4,1505.2,326.6,-0.8,1.8,2471.535,13.3,0.021,0.0
2023-08-09T01:10:03,42.805,6.029,-0.009,0.002,-0.028,103.0,104.0,102.0,13.4,1505.2,333.4,-0.8,1.8,2471.527,13.3,0.009,282.5
2023-08-09T01:13:03,42.805,6.029,-0.011,0.006,-0.029,104.0,105.0,102.0,13.4,1505.2,331.9,-0.8,1.8,2471.519,13.3,0.012,298.6
2023-08-09T01:16:03,42.805,6.029,0.021,0.024,-0.002,103.0,105.0,102.0,13.3,1505.2,335.5,-0.8,1.8,2471.536,13.3,0.031,41.2
2023-08-09T01:19:03,42.805,6.029,-0.007,0.015,-0.006,106.0,104.0,102.0,13.4,1505.2,342.3,-0.8,1.9,2471.514,13.3,0.016,335.0
2023-08-09T01:22:03,42.805,6.029,0.0,0.024,-0.013,105.0,104.0,102.0,13.3,1505.2,336.8,-0.8,1.8,2471.513,13.3,0.024,0.0
2023-08-09T01:25:03,42.805,6.029,0.001,0.036,-0.002,104.0,105.0,102.0,13.4,1505.2,329.6,-0.8,1.8,2471.513,13.3,0.036,1.6
2023-08-09T01:28:03,42.805,6.029,-0.01,0.003,-0.002,104.0,103.0,103.0,13.3,1505.2,327.0,-0.8,1.8,2471.467,13.3,0.01,286.7
2023-08-09T01:31:03,42.805,6.029,0.001,-0.003,-0.01,103.0,104.0,102.0,13.4,1505.2,332.0,-0.8,1.8,2471.505,13.3,0.003,161.6
2023-08-09T01:34:03,42.805,6.029,-0.016,-0.008,-0.049,102.0,104.0,103.0,13.3,1505.2,336.3,-0.8,1.8,2471.494,13.3,0.017,243.4
2023-08-09T01:37:03,42.805,6.029,-0.001,0.019,-0.041,103.0,105.0,102.0,13.3,1505.2,347.9,-0.7,1.8,2471.492,13.3,0.019,357.0
2023-08-09T01:40:03,42.805,6.029,0.027,-0.006,-0.018,104.0,104.0,103.0,13.4,1505.2,343.4,-0.7,1.8,2471.488,13.3,0.027,102.5
2023-08-09T01:43:03,42.805,6.029,-0.014,-0.002,0.002,104.0,103.0,102.0,13.4,1505.2,332.1,-0.8,1.8,2471.475,13.3,0.014,261.9
2023-08-09T01:46:03,42.805,6.029,0.001,0.006,-0.036,104.0,105.0,102.0,13.4,1505.2,338.0,-0.8,1.8,2471.527,13.3,0.006,9.5
2023-08-09T01:49:03,42.805,6.029,0.01,0.015,-0.019,105.0,103.0,102.0,13.4,1505.2,349.9,-0.8,1.8,2471.488,13.3,0.018,33.7
2023-08-09T01:52:03,42.805,6.029,0.006,0.006,-0.002,104.0,105.0,102.0,13.3,1505.2,337.2,-0.7,1.8,2471.505,13.3,0.008,45.0
2023-08-09T01:55:03,42.805,6.029,-0.007,0.004,-0.018,105.0,104.0,102.0,13.4,1505.2,332.5,-0.8,1.8,2471.497,13.3,0.008,299.7
2023-08-09T01:58:03,42.805,6.029,-0.004,0.002,-0.019,102.0,103.0,102.0,13.3,1505.2,342.5,-0.8,1.8,2471.485,13.3,0.004,296.6
2023-08-09T02:04:03,42.805,6.029,-0.006,0.01,-0.011,104.0,105.0,102.0,13.3,1505.2,330.3,-0.7,1.8,2471.557,13.29,0.011,329.0
2023-08-09T02:07:03,42.805,6.029,-0.02,0.021,-0.026,106.0,104.0,102.0,13.3,1505.2,327.9,-0.8,1.8,2471.534,13.29,0.028,316.4
2023-08-09T02:10:03,42.805,6.029,0.005,0.014,-0.017,105.0,104.0,102.0,13.3,1505.2,350.9,-0.8,1.8,2471.512,13.29,0.014,19.6
2023-08-09T02:13:03,42.805,6.029,-0.007,0.006,-0.015,103.0,104.0,102.0,13.3,1505.2,351.2,-0.8,1.8,2471.521,13.29,0.009,310.6
2023-08-09T02:16:03,42.805,6.029,0.006,0.017,-0.019,105.0,103.0,102.0,13.3,1505.2,341.8,-0.8,1.8,2471.544,13.3,0.018,19.4
2023-08-09T02:19:03,42.805,6.029,-0.009,0.017,-0.027,104.0,104.0,102.0,13.4,1505.2,324.4,-0.8,1.8,2471.52,13.29,0.019,332.1
2023-08-09T02:22:03,42.805,6.029,-0.013,0.006,-0.043,104.0,104.0,102.0,13.4,1505.2,338.2,-0.8,1.8,2471.51,13.29,0.014,294.8
2023-08-09T02:25:03,42.805,6.029,0.002,0.005,0.0,103.0,104.0,102.0,13.3,1505.2,321.6,-0.8,1.8,2471.54,13.29,0.005,21.8
2023-08-09T02:28:03,42.805,6.029,0.011,0.009,-0.014,103.0,105.0,102.0,13.3,1505.2,333.4,-0.8,1.8,2471.491,13.29,0.014,50.7
2023-08-09T02:31:03,42.805,6.029,-0.001,0.035,-0.015,103.0,104.0,102.0,13.4,1505.2,336.8,-0.8,1.8,2471.463,13.29,0.035,358.4
2023-08-09T02:34:03,42.805,6.029,-0.009,0.029,-0.023,105.0,103.0,102.0,13.3,1505.2,322.7,-0.8,1.8,2471.513,13.29,0.03,342.8
2023-08-09T02:37:03,42.805,6.029,0.016,0.023,-0.009,105.0,104.0,103.0,13.3,1505.2,332.3,-0.8,1.8,2471.471,13.29,0.028,34.8
2023-08-09T02:40:03,42.805,6.029,-0.002,0.019,-0.009,104.0,104.0,102.0,13.3,1505.2,350.9,-0.7,1.8,2471.496,13.29,0.019,354.0
2023-08-09T02:43:03,42.805,6.029,-0.017,0.009,-0.037,102.0,105.0,102.0,13.3,1505.2,326.5,-0.8,1.8,2471.513,13.29,0.019,297.9
2023-08-09T02:46:03,42.805,6.029,0.012,0.0,0.007,104.0,104.0,102.0,13.3,1505.2,341.2,-0.7,1.8,2471.495,13.29,0.012,90.0
2023-08-09T02:49:03,42.805,6.029,-0.018,0.013,-0.029,104.0,105.0,102.0,13.3,1505.2,343.4,-0.8,1.8,2471.467,13.29,0.022,305.8
2023-08-09T02:52:03,42.805,6.029,-0.003,0.031,-0.013,103.0,104.0,103.0,13.3,1505.2,343.7,-0.8,1.8,2471.484,13.3,0.031,354.5
2023-08-09T02:55:03,42.805,6.029,0.016,0.014,0.0,104.0,103.0,103.0,13.3,1505.2,344.5,-0.7,1.8,2471.443,13.3,0.021,48.8
2023-08-09T02:58:03,42.805,6.029,-0.013,0.012,-0.006,104.0,104.0,102.0,13.4,1505.2,335.6,-0.8,1.8,2471.494,13.3,0.017,312.7
2023-08-09T03:04:03,42.805,6.029,0.003,0.019,-0.005,104.0,104.0,101.0,13.3,1505.2,323.3,-0.8,1.8,2471.513,13.29,0.019,9.0
2023-08-09T03:07:03,42.805,6.029,-0.018,0.011,-0.013,103.0,105.0,102.0,13.4,1505.2,333.4,-0.7,1.8,2471.586,13.29,0.021,301.4
2023-08-09T03:10:03,42.805,6.029,0.021,0.011,0.013,105.0,103.0,102.0,13.4,1505.2,342.7,-0.8,1.8,2471.486,13.29,0.023,62.4
2023-08-09T03:13:03,42.805,6.029,0.0,0.017,-0.017,104.0,108.0,102.0,13.3,1505.2,329.7,-0.7,1.8,2471.518,13.29,0.017,0.0
2023-08-09T03:16:03,42.805,6.029,-0.013,0.013,-0.015,104.0,105.0,102.0,13.4,1505.2,327.2,-0.8,1.8,2471.501,13.29,0.018,315.0
2023-08-09T03:19:03,42.805,6.029,-0.009,0.034,0.033,105.0,104.0,102.0,13.4,1505.2,329.4,-0.8,1.8,2471.487,13.3,0.035,345.2
2023-08-09T03:22:03,42.805,6.029,0.001,0.014,-0.022,105.0,104.0,102.0,13.4,1505.2,326.0,-0.8,1.8,2471.507,13.3,0.014,4.1
2023-08-09T03:25:03,42.805,6.029,0.017,0.002,-0.017,104.0,103.0,102.0,13.4,1505.2,338.2,-0.7,1.8,2471.463,13.3,0.017,83.3
2023-08-09T03:28:03,42.805,6.029,0.006,0.033,-0.004,104.0,103.0,102.0,13.3,1505.2,334.4,-0.7,1.8,2471.487,13.3,0.033,10.3
2023-08-09T03:31:03,42.805,6.029,0.016,0.009,-0.022,104.0,104.0,101.0,13.4,1505.2,352.8,-0.7,1.8,2471.496,13.3,0.018,60.6
2023-08-09T03:34:03,42.805,6.029,-0.004,0.0,-0.025,103.0,104.0,103.0,13.4,1505.2,319.8,-0.7,1.8,2471.456,13.3,0.004,270.0
2023-08-09T03:37:03,42.805,6.029,0.007,0.01,0.02,103.0,104.0,102.0,13.3,1505.2,326.5,-0.8,1.8,2471.477,13.3,0.012,35.0
2023-08-09T03:40:03,42.805,6.029,0.014,0.017,-0.01,105.0,103.0,102.0,13.4,1505.2,351.5,-0.8,1.8,2471.457,13.3,0.022,39.5
2023-08-09T03:43:03,42.805,6.029,0.009,0.002,-0.011,104.0,104.0,102.0,13.3,1505.2,333.4,-0.8,1.8,2471.51,13.3,0.009,77.5
2023-08-09T03:46:03,42.805,6.029,-0.01,0.004,-0.021,103.0,104.0,103.0,13.4,1505.2,347.9,-0.8,1.8,2471.472,13.3,0.01,291.8
2023-08-09T03:49:03,42.805,6.029,-0.002,0.019,-0.001,104.0,104.0,102.0,13.3,1505.2,319.7,-0.7,1.8,2471.48,13.3,0.019,354.0
2023-08-09T03:52:03,42.805,6.029,0.0,0.017,-0.029,104.0,105.0,102.0,13.3,1505.2,330.8,-0.8,1.8,2471.456,13.3,0.017,0.0
2023-08-09T03:55:03,42.805,6.029,-0.006,0.017,0.014,104.0,104.0,102.0,13.4,1505.2,322.0,-0.8,1.8,2471.454,13.3,0.018,340.6
2023-08-09T03:58:03,42.805,6.029,0.005,-0.004,-0.004,104.0,104.0,101.0,13.4,1505.2,338.9,-0.8,1.8,2471.466,13.3,0.006,128.7
2023-08-09T04:04:03,42.805,6.029,0.003,0.011,-0.024,104.0,105.0,102.0,13.4,1505.2,350.5,-0.8,1.8,2471.517,13.29,0.011,15.3
2023-08-09T04:07:03,42.805,6.029,-0.003,0.007,0.001,104.0,103.0,102.0,13.4,1505.2,322.9,-0.8,1.8,2471.515,13.3,0.007,336.8
2023-08-09T04:10:03,42.805,6.029,0.003,0.007,-0.003,104.0,104.0,102.0,13.4,1505.2,327.6,-0.7,1.8,2471.544,13.3,0.007,23.2
2023-08-09T04:13:03,42.805,6.029,0.022,0.021,0.013,104.0,104.0,102.0,13.4,1505.2,341.5,-0.8,1.8,2471.473,13.3,0.03,46.3
2023-08-09T04:16:03,42.805,6.029,0.012,0.021,0.014,104.0,102.0,103.0,13.3,1505.2,322.6,-0.8,1.8,2471.47,13.3,0.024,29.7
2023-08-09T04:19:03,42.805,6.029,0.005,-0.005,-0.009,104.0,104.0,102.0,13.4,1505.2,338.4,-0.8,1.8,2471.489,13.3,0.007,135.0
2023-08-09T04:22:03,42.805,6.029,-0.013,-0.001,-0.053,104.0,104.0,102.0,13.4,1505.2,328.3,-0.8,1.8,2471.474,13.3,0.013,265.6
2023-08-09T04:25:03,42.805,6.029,0.0,0.003,0.01,105.0,104.0,101.0,13.4,1505.2,340.3,-0.8,1.8,2471.491,13.3,0.003,0.0
2023-08-09T04:28:03,42.805,6.029,0.001,-0.007,0.009,105.0,104.0,103.0,13.3,1505.2,341.9,-0.7,1.8,2471.47,13.3,0.007,171.9
2023-08-09T04:31:03,42.805,6.029,0.009,0.008,-0.035,104.0,104.0,102.0,13.4,1505.2,322.4,-0.7,1.8,2471.461,13.3,0.012,48.4
2023-08-09T04:34:03,42.805,6.029,0.01,0.017,-0.011,104.0,105.0,103.0,13.3,1505.2,333.4,-0.8,1.9,2471.491,13.29,0.019,30.5
2023-08-09T04:37:03,42.805,6.029,0.019,-0.02,-0.01,105.0,103.0,104.0,13.4,1505.2,347.7,-0.8,1.8,2471.435,13.29,0.027,136.5
2023-08-09T04:40:03,42.805,6.029,0.014,0.017,-0.005,103.0,104.0,102.0,13.4,1505.2,349.1,-0.8,1.8,2471.457,13.29,0.022,39.5
2023-08-09T04:43:03,42.805,6.029,0.026,0.003,-0.003,104.0,103.0,102.0,13.4,1505.2,340.6,-0.8,1.8,2471.465,13.29,0.026,83.4
2023-08-09T04:46:03,42.805,6.029,0.004,-0.005,-0.042,105.0,104.0,101.0,13.4,1505.2,331.3,-0.8,1.8,2471.419,13.29,0.006,141.3
2023-08-09T04:49:03,42.805,6.029,0.003,0.011,0.022,104.0,105.0,104.0,13.3,1505.2,339.8,-0.8,1.8,2471.459,13.29,0.011,15.3
2023-08-09T04:52:03,42.805,6.029,0.016,0.005,-0.009,103.0,106.0,102.0,13.4,1505.2,332.1,-0.8,1.8,2471.472,13.29,0.016,72.6
2023-08-09T04:55:03,42.805,6.029,0.026,-0.016,-0.03,104.0,103.0,102.0,13.3,1505.2,333.8,-0.8,1.8,2471.445,13.29,0.03,121.6
2023-08-09T04:58:03,42.805,6.029,0.0,0.026,-0.004,105.0,104.0,102.0,13.4,1505.2,331.2,-0.7,1.8,2471.409,13.29,0.026,0.0
2023-08-09T05:04:03,42.805,6.029,0.011,0.014,-0.007,104.0,104.0,102.0,13.4,1505.2,327.5,-0.8,1.8,2471.508,13.29,0.017,38.2
2023-08-09T05:07:03,42.805,6.029,0.014,0.011,-0.024,104.0,104.0,103.0,13.3,1505.2,342.6,-0.8,1.8,2471.463,13.29,0.017,51.8
2023-08-09T05:10:03,42.805,6.029,0.013,0.019,-0.003,103.0,105.0,102.0,13.4,1505.2,341.9,-0.8,1.8,2471.476,13.29,0.023,34.4
2023-08-09T05:13:03,42.805,6.029,0.0,0.013,-0.005,104.0,104.0,102.0,13.4,1505.2,336.1,-0.8,1.8,2471.448,13.29,0.013,0.0
2023-08-09T05:16:03,42.805,6.029,0.04,0.006,0.004,106.0,103.0,102.0,13.4,1505.2,332.9,-0.8,1.8,2471.449,13.29,0.04,81.5
2023-08-09T05:19:03,42.805,6.029,0.018,0.002,-0.016,103.0,104.0,102.0,13.4,1505.2,350.1,-0.7,1.8,2471.467,13.29,0.018,83.7
2023-08-09T05:22:03,42.805,6.029,0.007,0.025,0.002,104.0,104.0,102.0,13.4,1505.2,335.0,-0.8,1.8,2471.411,13.29,0.025,15.6
2023-08-09T05:25:03,42.805,6.029,0.011,0.003,-0.011,104.0,104.0,102.0,13.4,1505.2,341.5,-0.7,1.8,2471.435,13.29,0.011,74.7
2023-08-09T05:28:03,42.805,6.029,0.02,0.003,0.009,104.0,104.0,103.0,13.4,1505.2,345.1,-0.8,1.8,2471.46,13.29,0.02,81.5
2023-08-09T05:31:03,42.805,6.029,0.017,0.002,-0.014,104.0,104.0,102.0,13.3,1505.2,317.7,-0.8,1.8,2471.442,13.29,0.017,83.3
2023-08-09T05:34:03,42.805,6.029,0.016,0.001,-0.02,104.0,103.0,103.0,13.4,1505.2,342.6,-0.8,1.8,2471.456,13.29,0.016,86.4
2023-08-09T05:37:03,42.805,6.029,0.012,-0.005,-0.022,105.0,103.0,102.0,13.4,1505.2,341.9,-0.7,1.8,2471.423,13.29,0.013,112.6
2023-08-09T05:40:03,42.805,6.029,-0.002,0.005,-0.025,104.0,105.0,102.0,13.4,1505.2,349.1,-0.8,1.8,2471.441,13.29,0.005,338.2
2023-08-09T05:43:03,42.805,6.029,0.0,0.008,-0.018,104.0,104.0,102.0,13.4,1505.2,323.5,-0.7,1.8,2471.399,13.29,0.008,0.0
2023-08-09T05:46:03,42.805,6.029,0.017,-0.008,-0.02,105.0,104.0,102.0,13.3,1505.2,339.3,-0.8,1.8,2471.405,13.29,0.018,115.2
2023-08-09T05:49:03,42.805,6.029,0.029,0.008,0.009,104.0,104.0,102.0,13.3,1505.2,342.9,-0.8,1.8,2471.478,13.29,0.03,74.6
2023-08-09T05:52:03,42.805,6.029,0.017,-0.027,-0.029,104.0,104.0,103.0,13.4,1505.2,343.8,-0.8,1.8,2471.463,13.29,0.031,147.8
2023-08-09T05:55:03,42.805,6.029,0.021,0.009,-0.006,104.0,104.0,102.0,13.4,1505.2,326.9,-0.8,1.8,2471.423,13.29,0.022,66.8
2023-08-09T05:58:03,42.805,6.029,0.021,-0.01,0.006,105.0,106.0,101.0,13.3,1505.2,347.4,-0.8,1.8,2471.428,13.29,0.023,115.5
2023-08-09T06:04:03,42.805,6.029,0.027,-0.002,-0.001,104.0,104.0,102.0,13.4,1505.2,346.2,-0.8,1.9,2471.455,13.29,0.027,94.2
2023-08-09T06:07:03,42.805,6.029,0.016,0.007,-0.013,105.0,104.0,102.0,13.4,1505.2,322.9,-0.8,1.8,2471.465,13.29,0.017,66.4
2023-08-09T06:10:03,42.805,6.029,0.004,-0.002,0.0,105.0,103.0,102.0,13.4,1505.2,342.6,-0.8,1.8,2471.462,13.29,0.004,116.6
2023-08-09T06:13:03,42.805,6.029,0.018,0.005,-0.009,105.0,104.0,102.0,13.3,1505.2,349.7,-0.8,1.8,2471.45,13.29,0.018,74.5
2023-08-09T06:16:03,42.805,6.029,-0.014,0.006,-0.025,104.0,104.0,103.0,13.4,1505.2,320.4,-0.8,1.8,2471.424,13.29,0.015,293.2
2023-08-09T06:19:03,42.805,6.029,0.021,0.002,-0.018,105.0,105.0,102.0,13.4,1505.2,327.1,-0.8,1.8,2471.413,13.29,0.021,84.6
2023-08-09T06:22:03,42.805,6.029,-0.004,0.017,-0.003,103.0,105.0,103.0,13.4,1505.2,329.2,-0.8,1.9,2471.455,13.29,0.017,346.8
2023-08-09T06:25:03,42.805,6.029,0.005,0.003,-0.026,104.0,104.0,103.0,13.4,1505.2,322.5,-0.8,1.8,2471.42,13.29,0.005,59.0
2023-08-09T06:28:03,42.805,6.029,0.015,-0.023,-0.034,104.0,104.0,101.0,13.3,1505.2,350.5,-0.8,1.8,2471.433,13.29,0.027,146.9
2023-08-09T06:31:03,42.805,6.029,0.032,-0.004,0.003,103.0,104.0,102.0,13.4,1505.2,320.7,-0.7,1.8,2471.419,13.29,0.032,97.1
2023-08-09T06:34:03,42.805,6.029,0.008,0.005,-0.022,104.0,103.0,102.0,13.4,1505.2,328.3,-0.8,1.8,2471.423,13.29,0.009,58.0
2023-08-09T06:37:03,42.805,6.029,0.019,-0.009,-0.027,104.0,104.0,103.0,13.4,1505.2,341.9,-0.7,1.8,2471.489,13.29,0.021,115.3
2023-08-09T06:40:03,42.805,6.029,0.02,-0.004,-0.006,105.0,104.0,102.0,13.4,1505.2,332.6,-0.7,1.8,2471.427,13.29,0.02,101.3
2023-08-09T06:43:03,42.805,6.029,0.012,0.001,-0.025,103.0,104.0,102.0,13.3,1505.2,331.5,-0.8,1.8,2471.444,13.29,0.012,85.2
2023-08-09T06:46:03,42.805,6.029,0.012,0.009,-0.01,104.0,103.0,103.0,13.4,1505.2,328.8,-0.8,1.8,2471.399,13.29,0.015,53.1
2023-08-09T06:49:03,42.805,6.029,-0.004,0.01,0.002,105.0,103.0,102.0,13.3,1505.2,340.8,-0.7,1.8,2471.458,13.29,0.01,338.2
2023-08-09T06:52:03,42.805,6.029,-0.007,-0.002,0.002,103.0,104.0,102.0,13.4,1505.2,340.3,-0.8,1.8,2471.414,13.29,0.007,254.1
2023-08-09T06:55:03,42.805,6.029,0.018,-0.006,-0.003,104.0,104.0,102.0,13.4,1505.2,333.4,-0.8,1.8,2471.433,13.29,0.018,108.4
2023-08-09T06:58:03,42.805,6.029,0.012,0.003,-0.015,104.0,103.0,101.0,13.4,1505.2,339.4,-0.8,1.8,2471.432,13.29,0.012,76.0
2023-08-09T07:04:03,42.805,6.029,0.0,-0.007,-0.008,105.0,104.0,102.0,13.4,1505.2,347.4,-0.8,1.8,2471.439,13.29,0.007,180.0
2023-08-09T07:07:03,42.805,6.029,0.01,0.026,-0.028,105.0,104.0,101.0,13.4,1505.2,333.4,-0.7,1.8,2471.474,13.29,0.027,21.0
2023-08-09T07:10:03,42.805,6.029,0.027,-0.012,-0.013,104.0,103.0,102.0,13.4,1505.2,331.7,-0.8,1.8,2471.471,13.29,0.029,114.0
2023-08-09T07:13:03,42.805,6.029,0.004,-0.01,-0.006,102.0,104.0,103.0,13.4,1505.2,344.4,-0.8,1.8,2471.458,13.29,0.01,158.2
2023-08-09T07:16:03,42.805,6.029,0.004,0.001,-0.03,103.0,104.0,103.0,13.4,1505.2,341.1,-0.8,1.8,2471.473,13.29,0.004,76.0
2023-08-09T07:19:03,42.805,6.029,0.009,-0.004,-0.022,104.0,103.0,102.0,13.4,1505.2,343.0,-0.8,1.8,2471.442,13.29,0.009,114.0
2023-08-09T07:22:03,42.805,6.029,0.005,-0.015,-0.02,103.0,102.0,103.0,13.4,1505.2,327.6,-0.8,1.8,2471.406,13.29,0.015,161.6
2023-08-09T07:25:03,42.805,6.029,0.008,-0.016,-0.005,105.0,103.0,102.0,13.3,1505.2,327.7,-0.8,1.8,2471.472,13.29,0.017,153.4
2023-08-09T07:28:03,42.805,6.029,0.0,-0.007,-0.01,105.0,103.0,102.0,13.3,1505.2,348.4,-0.8,1.8,2471.441,13.29,0.007,180.0
2023-08-09T07:31:03,42.805,6.029,0.03,-0.021,-0.008,103.0,103.0,103.0,13.4,1505.2,320.8,-0.7,1.8,2471.466,13.29,0.036,125.0
2023-08-09T07:34:03,42.805,6.029,0.023,-0.001,-0.023,105.0,103.0,102.0,13.4,1505.2,333.0,-0.8,1.8,2471.414,13.29,0.023,92.5
2023-08-09T07:37:03,42.805,6.029,-0.01,-0.005,-0.031,104.0,102.0,102.0,13.3,1505.2,324.7,-0.7,1.8,2471.428,13.29,0.011,243.4
2023-08-09T07:40:03,42.805,6.029,0.001,-0.002,-0.02,103.0,103.0,102.0,13.4,1505.2,331.6,-0.7,1.8,2471.417,13.29,0.002,153.4
2023-08-09T07:43:03,42.805,6.029,0.0,-0.017,0.01,103.0,103.0,103.0,13.4,1505.2,330.1,-0.8,1.8,2471.419,13.29,0.017,180.0
2023-08-09T07:46:03,42.805,6.029,0.019,-0.007,-0.021,105.0,105.0,102.0,13.4,1505.2,321.7,-0.7,1.8,2471.403,13.29,0.02,110.2
2023-08-09T07:49:03,42.805,6.029,0.002,-0.008,-0.027,104.0,103.0,102.0,13.4,1505.2,332.9,-0.7,1.8,2471.426,13.29,0.008,166.0
2023-08-09T07:52:03,42.805,6.029,-0.002,-0.034,-0.059,104.0,104.0,103.0,13.3,1505.2,329.8,-0.8,1.8,2471.46,13.29,0.034,183.4
2023-08-09T07:55:03,42.805,6.029,0.011,-0.005,-0.023,104.0,105.0,102.0,13.4,1505.2,327.7,-0.8,1.8,2471.404,13.29,0.012,114.4
2023-08-09T07:58:03,42.805,6.029,-0.002,-0.027,-0.065,104.0,102.0,103.0,13.4,1505.2,331.4,-0.8,1.8,2471.433,13.29,0.027,184.2
2023-08-09T08:04:03,42.805,6.029,0.008,-0.013,-0.027,104.0,104.0,102.0,13.3,1505.2,341.1,-0.8,1.8,2471.465,13.29,0.015,148.4
2023-08-09T08:07:03,42.805,6.029,0.004,-0.007,-0.039,105.0,104.0,102.0,13.3,1505.2,348.4,-0.8,1.8,2471.445,13.29,0.008,150.3
2023-08-09T08:10:03,42.805,6.029,0.006,-0.01,-0.046,103.0,104.0,102.0,13.4,1505.2,329.8,-0.7,1.8,2471.454,13.29,0.011,149.0
2023-08-09T08:13:03,42.805,6.029,-0.01,-0.013,-0.037,105.0,103.0,101.0,13.4,1505.2,350.1,-0.8,1.8,2471.444,13.29,0.016,217.6
2023-08-09T08:16:03,42.805,6.029,-0.01,-0.006,-0.027,105.0,104.0,103.0,13.4,1505.2,342.6,-0.8,1.8,2471.433,13.29,0.011,239.0
2023-08-09T08:19:03,42.805,6.029,0.018,-0.003,-0.024,106.0,104.0,102.0,13.4,1505.2,319.8,-0.8,1.8,2471.406,13.29,0.018,99.5
2023-08-09T08:22:03,42.805,6.029,-0.002,0.0,-0.017,104.0,103.0,103.0,13.3,1505.2,337.8,-0.8,1.8,2471.435,13.29,0.002,270.0
2023-08-09T08:25:03,42.805,6.029,0.023,-0.01,-0.011,103.0,103.0,104.0,13.3,1505.2,323.1,-0.8,1.8,2471.403,13.29,0.025,113.5
2023-08-09T08:28:03,42.805,6.029,0.017,-0.007,0.024,104.0,104.0,102.0,13.3,1505.2,343.7,-0.8,1.8,2471.469,13.29,0.018,112.4
2023-08-09T08:31:03,42.805,6.029,0.01,-0.018,0.004,105.0,104.0,102.0,13.4,1505.2,330.3,-0.8,1.8,2471.447,13.29,0.02,150.9
2023-08-09T08:34:03,42.805,6.029,0.012,-0.03,-0.018,103.0,104.0,103.0,13.4,1505.2,324.5,-0.8,1.8,2471.423,13.29,0.032,158.2
2023-08-09T08:37:03,42.805,6.029,-0.025,-0.002,-0.028,104.0,104.0,103.0,13.4,1505.2,328.8,-0.8,1.8,2471.391,13.29,0.025,265.4
2023-08-09T08:40:03,42.805,6.029,0.011,0.01,-0.006,104.0,104.0,102.0,13.4,1505.2,333.4,-0.8,1.8,2471.43,13.29,0.014,47.7
2023-08-09T08:43:03,42.805,6.029,0.001,-0.02,-0.025,104.0,104.0,102.0,13.3,1505.2,332.5,-0.8,1.8,2471.416,13.29,0.02,177.1
2023-08-09T08:46:03,42.805,6.029,-0.019,-0.015,-0.016,104.0,105.0,103.0,13.4,1505.2,334.9,-0.8,1.8,2471.445,13.29,0.024,231.7
2023-08-09T08:49:03,42.805,6.029,0.001,-0.015,-0.042,103.0,103.0,103.0,13.4,1505.2,339.5,-0.8,1.8,2471.426,13.29,0.015,176.2
2023-08-09T08:52:03,42.805,6.029,-0.003,0.001,-0.038,105.0,103.0,104.0,13.3,1505.2,329.9,-0.7,1.8,2471.425,13.29,0.003,288.4
2023-08-09T08:55:03,42.805,6.029,0.011,-0.018,-0.031,104.0,103.0,103.0,13.4,1505.2,329.3,-0.8,1.8,2471.418,13.29,0.021,148.6
2023-08-09T08:58:03,42.805,6.029,0.01,-0.021,-0.039,104.0,104.0,103.0,13.3,1505.2,321.1,-0.8,1.8,2471.399,13.29,0.023,154.5
2023-08-09T09:04:03,42.805,6.029,0.011,-0.003,-0.003,104.0,104.0,102.0,13.3,1505.2,337.2,-0.8,1.8,2471.49,13.29,0.011,105.3
2023-08-09T09:07:03,42.805,6.029,0.0,-0.017,-0.014,104.0,103.0,104.0,13.4,1505.2,339.4,-0.8,1.8,2471.477,13.29,0.017,180.0
2023-08-09T09:10:03,42.805,6.029,-0.011,-0.002,-0.029,103.0,104.0,102.0,13.3,1505.2,333.9,-0.7,1.8,2471.465,13.29,0.011,259.7
2023-08-09T09:13:03,42.805,6.029,-0.026,-0.015,-0.044,104.0,104.0,102.0,13.4,1505.2,322.5,-0.7,1.8,2471.426,13.29,0.03,240.0
2023-08-09T09:16:03,42.805,6.029,0.024,-0.008,-0.04,103.0,104.0,102.0,13.3,1505.2,326.3,-0.8,1.8,2471.437,13.29,0.025,108.4
2023-08-09T09:19:03,42.805,6.029,-0.008,-0.018,-0.054,105.0,103.0,103.0,13.4,1505.2,326.5,-0.8,1.8,2471.449,13.29,0.019,204.0
2023-08-09T09:22:03,42.805,6.029,-0.002,-0.016,-0.047,104.0,104.0,102.0,13.4,1505.2,333.9,-0.8,1.8,2471.481,13.29,0.016,187.1
2023-08-09T09:25:03,42.805,6.029,-0.008,-0.012,-0.042,105.0,103.0,102.0,13.4,1505.2,340.0,-0.8,1.9,2471.428,13.29,0.014,213.7
2023-08-09T09:28:03,42.805,6.029,0.013,-0.024,-0.038,105.0,105.0,102.0,13.4,1505.2,326.3,-0.7,1.8,2471.469,13.29,0.027,151.6
2023-08-09T09:31:03,42.805,6.029,0.005,-0.025,-0.033,104.0,102.0,104.0,13.4,1505.2,341.9,-0.8,1.8,2471.456,13.29,0.025,168.7
2023-08-09T09:34:03,42.805,6.029,-0.012,0.001,-0.026,104.0,105.0,103.0,13.4,1505.2,330.7,-0.8,1.9,2471.452,13.29,0.012,274.8
2023-08-09T09:37:03,42.805,6.029,0.0,-0.017,-0.043,105.0,103.0,103.0,13.3,1505.2,349.3,-0.7,1.8,2471.43,13.29,0.017,180.0
2023-08-09T09:40:03,42.805,6.029,-0.003,0.011,-0.015,104.0,103.0,102.0,13.4,1505.2,323.3,-0.7,1.8,2471.446,13.29,0.011,344.7
2023-08-09T09:43:03,42.805,6.029,-0.016,-0.006,-0.012,103.0,104.0,103.0,13.4,1505.2,325.5,-0.8,1.8,2471.45,13.29,0.017,249.4
2023-08-09T09:46:03,42.805,6.029,0.0,-0.006,-0.022,105.0,104.0,104.0,13.4,1505.2,323.5,-0.8,1.8,2471.449,13.29,0.006,180.0
2023-08-09T09:49:03,42.805,6.029,-0.001,-0.005,-0.024,103.0,104.0,103.0,13.4,1505.2,328.8,-0.8,1.8,2471.459,13.29,0.005,191.3
2023-08-09T09:52:03,42.805,6.029,0.021,-0.006,-0.014,104.0,103.0,103.0,13.3,1505.2,341.9,-0.8,1.8,2471.457,13.29,0.021,105.9
2023-08-09T09:55:03,42.805,6.029,0.013,-0.016,-0.015,104.0,104.0,102.0,13.4,1505.2,341.5,-0.8,1.8,2471.451,13.29,0.02,140.9
2023-08-09T09:58:03,42.805,6.029,-0.021,0.017,-0.005,104.0,103.0,102.0,13.3,1505.2,351.5,-0.7,1.8,2471.431,13.29,0.027,309.0